Weather History for Windom, MN

Change the Weather History Date:

Wednesday, May 21, 2014

  Actual Average Record
Temperature  
Mean Temperature 58 °F -  
Max Temperature 69 °F 75 °F 93 °F (1975)
Min Temperature 48 °F 49 °F 6 °F (2001)
Degree Days  
Heating Degree Days 6    
Growing Degree Days 8 (Base 50)    
Moisture  
Dew Point 44 °F    
Average Humidity 60    
Maximum Humidity 87    
Minimum Humidity 37    
Precipitation  
Precipitation 0.00 in - - ()
Sea Level Pressure  
Sea Level Pressure 30.05 in    
Wind  
Wind Speed 14 mph (NNW)    
Max Wind Speed 18 mph    
Max Gust Speed 26 mph    
Visibility 10 miles    
Events      
Averages and records for this station are not official NWS values.
T = Trace of Precipitation, MM = Missing Value Source: NWS Daily Summary

Daily Weather History Graph

Daily Weather History Graph

Search for Another Location

Airport:

Trip Planner

Search our weather history database for the weather conditions in past years. The results will help you decide how hot, cold, wet, or windy it might be!

Date:

Astronomy

May. 21, 2014 Rise Set
Actual Time 5:48 AM CDT 8:46 PM CDT
Civil Twilight 5:14 AM CDT 9:20 PM CDT
Nautical Twilight 4:31 AM CDT 10:03 PM CDT
Astronomical Twilight 3:40 AM CDT 10:55 PM CDT
Moon 1:47 AM CDT (5/21) 1:13 PM CDT (5/21)
Length of Visible Light 16h 05m
Length of Day
14h 57m
Waning Gibbous, 48% of the Moon is Illuminated
May 21
Waning Gibbous
May 28
New
Jun 5
First Quarter
Jun 12
Full
Jun 19
Last Quarter

Hourly Weather History & Observations

Time (CDT) Temp. Dew Point Humidity Pressure Visibility Wind Dir Wind Speed Gust Speed Precip Events Conditions
12:12 AM 62.6 °F 46.4 °F 55% 29.91 in 10.0 mi NW 13.8 mph - N/A   Clear
12:32 AM 60.8 °F 46.4 °F 59% 29.92 in 10.0 mi NNW 11.5 mph - N/A   Clear
12:53 AM 60.8 °F 46.4 °F 59% 29.92 in 10.0 mi NNW 11.5 mph - N/A   Clear
1:12 AM 59.0 °F 46.4 °F 63% 29.92 in 10.0 mi NNW 12.7 mph - N/A   Clear
1:33 AM 59.0 °F 48.2 °F 67% 29.93 in 10.0 mi NNW 15.0 mph - N/A   Clear
1:52 AM 59.0 °F 48.2 °F 67% 29.94 in 10.0 mi NNW 17.3 mph 20.7 mph N/A   Clear
2:12 AM 57.2 °F 46.4 °F 67% 29.94 in 10.0 mi NNW 18.4 mph 24.2 mph N/A   Clear
2:33 AM 57.2 °F 46.4 °F 67% 29.95 in 10.0 mi NNW 16.1 mph 21.9 mph N/A   Clear
2:52 AM 55.4 °F 46.4 °F 72% 29.95 in 10.0 mi NNW 17.3 mph - N/A   Clear
3:12 AM 55.4 °F 46.4 °F 72% 29.95 in 10.0 mi NNW 15.0 mph - N/A   Clear
3:33 AM 53.6 °F 44.6 °F 72% 29.96 in 10.0 mi NNW 16.1 mph - N/A   Clear
3:52 AM 53.6 °F 44.6 °F 72% 29.97 in 10.0 mi NNW 13.8 mph - N/A   Clear
4:12 AM 53.6 °F 44.6 °F 72% 29.97 in 10.0 mi NNW 12.7 mph - N/A   Clear
4:33 AM 51.8 °F 44.6 °F 76% 29.98 in 10.0 mi NNW 11.5 mph - N/A   Clear
4:52 AM 51.8 °F 44.6 °F 76% 29.98 in 10.0 mi NNW 10.4 mph - N/A   Clear
5:12 AM 50.0 °F 44.6 °F 82% 29.98 in 10.0 mi NW 9.2 mph - N/A   Clear
5:33 AM 48.2 °F 44.6 °F 87% 29.99 in 10.0 mi NW 6.9 mph - N/A   Clear
5:52 AM 48.2 °F 44.6 °F 87% 29.99 in 10.0 mi NW 8.1 mph - N/A   Clear
6:12 AM 50.0 °F 44.6 °F 82% 30.01 in 10.0 mi NW 6.9 mph - N/A   Clear
6:32 AM 50.0 °F 44.6 °F 82% 30.02 in 10.0 mi NW 8.1 mph - N/A   Clear
6:52 AM 51.8 °F 44.6 °F 76% 30.03 in 10.0 mi NW 9.2 mph - N/A   Clear
7:13 AM 53.6 °F 44.6 °F 72% 30.03 in 10.0 mi NW 12.7 mph - N/A   Clear
7:52 AM 55.4 °F 44.6 °F 67% 30.05 in 10.0 mi NNW 16.1 mph - N/A   Clear
8:13 AM 55.4 °F 46.4 °F 72% 30.05 in 10.0 mi NNW 16.1 mph 20.7 mph N/A   Clear
8:32 AM 55.4 °F 46.4 °F 72% 30.06 in 10.0 mi NNW 18.4 mph 23.0 mph N/A   Clear
8:52 AM 57.2 °F 46.4 °F 67% 30.06 in 10.0 mi NNW 16.1 mph - N/A   Clear
9:13 AM 57.2 °F 44.6 °F 63% 30.06 in 10.0 mi NNW 16.1 mph - N/A   Clear
9:32 AM 59.0 °F 44.6 °F 59% 30.06 in 10.0 mi NNW 15.0 mph 20.7 mph N/A   Clear
9:52 AM 59.0 °F 44.6 °F 59% 30.07 in 10.0 mi NW 15.0 mph - N/A   Clear
10:13 AM 60.8 °F 44.6 °F 55% 30.07 in 10.0 mi NNW 18.4 mph - N/A   Clear
10:32 AM 60.8 °F 44.6 °F 55% 30.08 in 10.0 mi NW 15.0 mph 24.2 mph N/A   Clear
10:52 AM 62.6 °F 46.4 °F 55% 30.09 in 10.0 mi NW 15.0 mph 25.3 mph N/A   Scattered Clouds
11:13 AM 60.8 °F 44.6 °F 55% 30.09 in 10.0 mi NW 18.4 mph 23.0 mph N/A   Scattered Clouds
11:32 AM 62.6 °F 44.6 °F 52% 30.09 in 10.0 mi NW 17.3 mph 25.3 mph N/A   Scattered Clouds
11:52 AM 62.6 °F 44.6 °F 52% 30.09 in 10.0 mi WNW 16.1 mph - N/A   Clear
12:32 PM 62.6 °F 46.4 °F 55% 30.09 in 10.0 mi WNW 13.8 mph 25.3 mph N/A   Scattered Clouds
1:12 PM 62.6 °F 44.6 °F 52% 30.07 in 10.0 mi NW 17.3 mph 24.2 mph N/A   Clear
1:33 PM 64.4 °F 46.4 °F 52% 30.08 in 10.0 mi NNW 16.1 mph 24.2 mph N/A   Clear
1:52 PM 62.6 °F 44.6 °F 52% 30.09 in 10.0 mi NW 16.1 mph 26.5 mph N/A   Clear
2:33 PM 66.2 °F 44.6 °F 46% 30.08 in 10.0 mi NW 12.7 mph 25.3 mph N/A   Clear
2:52 PM 66.2 °F 44.6 °F 46% 30.08 in 10.0 mi NNW 18.4 mph 21.9 mph N/A   Clear
3:12 PM 66.2 °F 44.6 °F 46% 30.08 in 10.0 mi NW 15.0 mph 21.9 mph N/A   Clear
3:33 PM 66.2 °F 44.6 °F 46% 30.08 in 10.0 mi NW 16.1 mph 24.2 mph N/A   Clear
3:52 PM 66.2 °F 42.8 °F 43% 30.08 in 10.0 mi NNW 17.3 mph 24.2 mph N/A   Clear
4:12 PM 68.0 °F 42.8 °F 40% 30.08 in 10.0 mi NNW 17.3 mph 24.2 mph N/A   Clear
4:33 PM 68.0 °F 42.8 °F 40% 30.08 in 10.0 mi NW 15.0 mph 23.0 mph N/A   Clear
4:52 PM 69.8 °F 42.8 °F 38% 30.08 in 10.0 mi NNW 17.3 mph 20.7 mph N/A   Clear
5:12 PM 68.0 °F 42.8 °F 40% 30.08 in 10.0 mi NNW 16.1 mph 23.0 mph N/A   Clear
5:33 PM 68.0 °F 42.8 °F 40% 30.08 in 10.0 mi NNW 16.1 mph 21.9 mph N/A   Clear
5:52 PM 68.0 °F 41.0 °F 37% 30.08 in 10.0 mi North 16.1 mph 23.0 mph N/A   Clear
6:12 PM 68.0 °F 41.0 °F 37% 30.09 in 10.0 mi NNW 17.3 mph 21.9 mph N/A   Clear
6:33 PM 66.2 °F 42.8 °F 43% 30.09 in 10.0 mi NNW 12.7 mph 19.6 mph N/A   Clear
6:52 PM 66.2 °F 41.0 °F 40% 30.09 in 10.0 mi NNW 15.0 mph 19.6 mph N/A   Clear
7:12 PM 66.2 °F 41.0 °F 40% 30.09 in 10.0 mi North 13.8 mph - N/A   Clear
7:32 PM 64.4 °F 41.0 °F 42% 30.09 in 10.0 mi NNW 12.7 mph - N/A   Clear
7:52 PM 64.4 °F 41.0 °F 42% 30.10 in 10.0 mi North 15.0 mph - N/A   Clear
8:12 PM 62.6 °F 42.8 °F 48% 30.10 in 10.0 mi North 12.7 mph - N/A   Clear
8:33 PM 60.8 °F 42.8 °F 52% 30.11 in 10.0 mi NNW 9.2 mph - N/A   Clear
8:52 PM 57.2 °F 42.8 °F 59% 30.11 in 10.0 mi NNW 8.1 mph - N/A   Clear
9:12 PM 55.4 °F 42.8 °F 63% 30.12 in 10.0 mi North 6.9 mph - N/A   Clear
9:33 PM 55.4 °F 41.0 °F 58% 30.13 in 10.0 mi North 6.9 mph - N/A   Clear
9:52 PM 53.6 °F 41.0 °F 62% 30.13 in 10.0 mi North 6.9 mph - N/A   Clear
10:12 PM 51.8 °F 42.8 °F 71% 30.13 in 10.0 mi North 6.9 mph - N/A   Clear
10:33 PM 51.8 °F 42.8 °F 71% 30.14 in 10.0 mi North 4.6 mph - N/A   Clear
10:52 PM 51.8 °F 41.0 °F 67% 30.15 in 10.0 mi NNW 4.6 mph - N/A   Clear
11:12 PM 50.0 °F 42.8 °F 76% 30.16 in 10.0 mi NNW 6.9 mph - N/A   Clear
11:33 PM 48.2 °F 41.0 °F 76% 30.16 in 10.0 mi NNW 5.8 mph - N/A   Clear